Regional Weather Roundup
Issued by NWS Little Rock, AR

Home | Current Version | Previous Version | Text Only | Print | Product List | Glossary Off
Versions: 1 2 3 4 5 6 7 8 9 10 11 12 13 14 15 16 17 18 19 20 21 22 23 24 25 26 27

000
ASUS44 KLZK 240605
RWRLZK

WEATHER ROUNDUP FOR ARKANSAS
NATIONAL WEATHER SERVICE LITTLE ROCK AR
100 AM CDT FRI OCT 24 2014

NOTE: "FAIR" INDICATES FEW OR NO CLOUDS BELOW 12,000 FEET WITH NO
SIGNIFICANT WEATHER AND/OR OBSTRUCTIONS TO VISIBILITY.

ARZ001-003-010-029-240700-
NORTHWEST ARKANSAS

CITY           SKY/WX    TMP DP  RH WIND       PRES   REMARKS
FAYETTEVILLE   CLEAR     49  49 100 CALM      30.14F
6HR MIN TEMP:  49; 6HR MAX TEMP:  60;

FORT SMITH     CLEAR     56  53  90 E3        30.13S
6HR MIN TEMP:  56; 6HR MAX TEMP:  64;

HARRISON       CLEAR     51  51 100 NW3       30.14S
6HR MIN TEMP:  51; 6HR MAX TEMP:  60;

BENTONVILLE    CLEAR     54  50  87 CALM      30.14S
6HR MIN TEMP:  52; 6HR MAX TEMP:  61;

ROGERS         CLEAR     51  50  96 CALM      30.15S
6HR MIN TEMP:  51; 6HR MAX TEMP:  57;

SILOAM SPGS    CLEAR     52  45  76 SE5       30.14F
6HR MIN TEMP:  52; 6HR MAX TEMP:  59;

HIGHFILL       PTCLDY    51  51 100 S3        30.13S FOG
6HR MIN TEMP:  51; 6HR MAX TEMP:  60;

$$

ARZ004-005-016-240700-
NORTH CENTRAL ARKANSAS

CITY           SKY/WX    TMP DP  RH WIND       PRES   REMARKS
BATESVILLE     CLEAR     46  45  93 CALM      30.15S
6HR MIN TEMP:  46; 6HR MAX TEMP:  54;

FLIPPIN        MOCLDY    50  45  81 CALM      30.14S
6HR MIN TEMP:  50; 6HR MAX TEMP:  57;

MTN HOME       CLOUDY    54  51  90 CALM      30.13S
6HR MIN TEMP:  50; 6HR MAX TEMP:  57;

$$

ARZ040-041-240700-
WEST CENTRAL ARKANSAS

CITY           SKY/WX    TMP DP  RH WIND       PRES   REMARKS
MENA           CLEAR     52  50  93 CALM      30.15F
MOUNT IDA      CLEAR     50  49  96 CALM      30.13R
6HR MIN TEMP:  50; 6HR MAX TEMP:  60; 6HR PCP: TRACE;

$$

ARZ009-017-025-026-028-240700-
NORTHEAST ARKANSAS

CITY           SKY/WX    TMP DP  RH WIND       PRES   REMARKS
CORNING        FAIR      46  46 100 CALM      30.14S
JONESBORO      CLEAR     46  45  96 CALM      30.14S
6HR MIN TEMP:  45; 6HR MAX TEMP:  56;

NEWPORT        CLEAR     49  49 100 CALM      30.16S
6HR MIN TEMP:  47; 6HR MAX TEMP:  56; 6HR PCP: TRACE;

WALNUT RIDGE   CLEAR     46  43  87 W3        30.15S
6HR MIN TEMP:  46; 6HR MAX TEMP:  55;

BLYTHEVILLE    CLEAR     49  47  93 W6        30.14S
6HR MIN TEMP:  48; 6HR MAX TEMP:  56;

$$

ARZ022-023-033-042-044-240700-
CENTRAL ARKANSAS

CITY           SKY/WX    TMP DP  RH WIND       PRES   REMARKS
LITTLE ROCK    PTCLDY    52  48  86 CALM      30.16R
6HR MIN TEMP:  51; 6HR MAX TEMP:  59;

N LITTLE ROCK    N/A     51  49  92 CALM      30.16R
6HR MIN TEMP:  51; 6HR MAX TEMP:  58;

JACKSONVILLE   CLEAR     48  47  99 CALM      30.16R
6HR MIN TEMP:  48; 6HR MAX TEMP:  56; 6HR PCP: TRACE;

SEARCY         CLEAR     47  46  97 CALM      30.17R FOG
6HR MIN TEMP:  47; 6HR MAX TEMP:  56;

HOT SPRINGS    CLEAR     51  49  92 CALM      30.15S
6HR MIN TEMP:  51; 6HR MAX TEMP:  62;

RUSSELLVILLE   CLEAR     49  47  93 CALM      30.14F
6HR MIN TEMP:  49; 6HR MAX TEMP:  60;

$$

ARZ036-240700-
EAST ARKANSAS

CITY           SKY/WX    TMP DP  RH WIND       PRES   REMARKS
WEST MEMPHIS   CLEAR     49  48  97 CALM      30.13S
6HR MIN TEMP:  49; 6HR MAX TEMP:  56;

$$

ARZ050-053-066-070-073-240700-
SOUTHWEST ARKANSAS

CITY           SKY/WX    TMP DP  RH WIND       PRES   REMARKS
ARKADELPHIA    FAIR      50  50 100 CALM      30.16R
6HR MIN TEMP:  50; 6HR MAX TEMP:  58;

CAMDEN         PTCLDY    45  43  93 CALM      30.15S FOG
TEXARKANA      CLEAR     51  50  96 CALM      30.15R
6HR MIN TEMP:  51; 6HR MAX TEMP:  62;

EL DORADO      CLEAR     47  45  93 CALM      30.14S
6HR MIN TEMP:  45; 6HR MAX TEMP:  54;

DE QUEEN       CLEAR     52  52 100 CALM      30.14R FOG
6HR MIN TEMP:  52; 6HR MAX TEMP:  59;

$$

ARZ056-057-069-240700-
SOUTHEAST ARKANSAS

CITY           SKY/WX    TMP DP  RH WIND       PRES   REMARKS
PINE BLUFF     PTCLDY    47  45  93 CALM      30.14S
6HR MIN TEMP:  47; 6HR MAX TEMP:  57;

STUTTGART      PTCLDY    48  45  87 N3        30.15S
6HR MIN TEMP:  48; 6HR MAX TEMP:  57;

MONTICELLO     PTCLDY    47  45  93 CALM      30.14R
6HR MIN TEMP:  45; 6HR MAX TEMP:  54; 6HR PCP: TRACE;


$$





USA.gov is the U.S. government's official web portal to all federal, state and local government web resources and services.